Content
SEND FEEDBACK

Daily
Averages
Monthly
Summary
United States of America

BOILING SPRING LAKES, NORTH CAROLINA


Home > North America > United States > North Carolina
Elevation: 20 feet     Latitude: 34 00N     Longitude: 078 01W

WEATHER
 
SELECT A DAY
Number of Records: 142,252;   Date Range: 8/21/01 - 9/29/14
 
SHARE

PRINT THIS DATA

[ ← Previous Day ]
WEATHER ALMANAC - SEPTEMBER 2, 2014
[ Next Day → ]
[ °C ]   °F
Weather ElementAverageHighLow
Temperature82.7 °F88.3 °F (11:15 am)77.9 °F (7:35 am)
Dewpoint75.1 °F77.2 °F (2:35 pm)73 °F (10:35 am)
Humidity78 %90 % (7:15 am)62 % (10:35 am)
Barometer30.06 in30.11 in (7:55 am)30.00 in (5:15 pm)
Wind Speed7.1 mph11.5 mph (3:15 pm)
Wind Gust17.3 mph (2:55 pm)
Weather ElementAverage
Visibility10 mi
Wind DirectionSSW (210.6 °)

Weather ElementTotal
Precipitation---
Cooling Degree Days18.1 (Base 65)
Growing Degree Days33.1 (Base 50)
Averaged from 70 records on September 2, 2014
WEATHER CONDITIONS BREAKOUT
WIND DIRECTION BREAKOUT
WEATHER BY HOUR - SEPTEMBER 2, 2014
[ °C ]   °F
Local TimeTemperatureDewpointHumidityBarometerVisibilityWind DirectionWind SpeedGust SpeedPrecipitationEventsConditions
12:35 AM80.2 °F74.3 °F82 %30.10 in10.0 miSSW (210°)5.8 mphClear
12:55 AM80.2 °F74.8 °F84 %30.09 in10.0 miSSW (210°)5.8 mphClear
1:15 AM80.1 °F75.0 °F85 %30.10 in10.0 miSW (220°)6.9 mphScattered Clouds
1:35 AM80.1 °F75.2 °F85 %30.09 in10.0 miSW (220°)8.1 mphScattered Clouds
1:55 AM80.1 °F74.7 °F83 %30.09 in10.0 miSW (230°)5.8 mphScattered Clouds
2:15 AM79.9 °F74.7 °F84 %30.08 in10.0 miSW (220°)8.1 mphScattered Clouds
2:35 AM80.1 °F75.2 °F85 %30.07 in10.0 miSW (220°)9.2 mphClear
2:55 AM80.1 °F74.8 °F84 %30.07 in10.0 miSW (230°)5.8 mphScattered Clouds
3:15 AM79.7 °F74.8 °F85 %30.07 in10.0 miSW (220°)6.9 mphScattered Clouds
3:35 AM79.7 °F74.8 °F85 %30.07 in10.0 miSW (220°)9.2 mphScattered Clouds
3:55 AM79.7 °F75.2 °F86 %30.07 in10.0 miSW (230°)6.9 mphMostly Cloudy
4:15 AM79.9 °F74.8 °F85 %30.06 in10.0 miWSW (240°)6.9 mphMostly Cloudy
4:35 AM79.7 °F74.5 °F84 %30.06 in10.0 miSW (230°)6.9 mphMostly Cloudy
4:55 AM79.7 °F74.3 °F83 %30.06 in10.0 miSW (230°)6.9 mphMostly Cloudy
5:15 AM79.3 °F74.3 °F84 %30.06 in10.0 miSW (220°)6.9 mphScattered Clouds
5:35 AM79.3 °F74.3 °F84 %30.06 in10.0 miSW (220°)4.6 mphScattered Clouds
5:55 AM79.3 °F74.7 °F86 %30.07 in10.0 miWest (260°)4.6 mphScattered Clouds
6:15 AM79.3 °F74.7 °F86 %30.08 in10.0 miWSW (240°)4.6 mphScattered Clouds
6:35 AM79.7 °F74.7 °F84 %30.09 in10.0 miNW (320°)4.6 mphMostly Cloudy
6:55 AM79.3 °F75.2 °F87 %30.08 in10.0 miNW (310°)3.5 mphMostly Cloudy
7:15 AM78.1 °F74.8 °F90 %30.09 in10.0 miCalmClear
7:35 AM77.9 °F74.8 °F90 %30.10 in10.0 miCalmClear
7:55 AM79.3 °F75.4 °F88 %30.11 in10.0 miCalmClear
8:15 AM80.4 °F75.4 °F85 %30.10 in10.0 miWest (260°)3.5 mphClear
8:35 AM81.9 °F75.9 °F82 %30.10 in10.0 miWest (270°)6.9 mphClear
8:55 AM82.9 °F75.6 °F78 %30.10 in10.0 miWest (270°)8.1 mphScattered Clouds
9:15 AM83.3 °F75.2 °F76 %30.10 in10.0 miWest (280°)8.1 mphClear
9:35 AM84.6 °F74.7 °F72 %30.10 in10.0 miWest (260°)6.9 mphClear
9:55 AM85.1 °F73.9 °F69 %30.10 in10.0 miWest (280°)5.8 mphClear
10:15 AM86.4 °F73.9 °F66 %30.09 in10.0 miWest (270°)5.8 mphClear
10:35 AM87.3 °F73.0 °F62 %30.09 in10.0 miWest (280°)4.6 mphClear
10:55 AM88.2 °F76.3 °F68 %30.09 in10.0 miSouth (190°)4.6 mphScattered Clouds
11:15 AM88.3 °F76.3 °F67 %30.08 in10.0 miSW (220°)4.6 mphScattered Clouds
11:35 AM88.3 °F75.9 °F67 %30.08 in10.0 miSSW (200°)5.8 mphClear
11:55 AM88.2 °F75.7 °F67 %30.08 in10.0 miSSW (200°)4.6 mphClear
12:15 PM87.3 °F75.4 °F68 %30.09 in10.0 miSSW (210°)9.2 mphClear
12:35 PM88.0 °F76.3 °F68 %30.08 in10.0 miSouth (190°)8.1 mphClear
12:55 PM88.0 °F76.5 °F69 %30.08 in10.0 miSouth (170°)8.1 mphClear
1:15 PM87.6 °F76.6 °F70 %30.09 in10.0 miSouth (180°)10.4 mphClear
1:35 PM86.9 °F76.6 °F71 %30.09 in10.0 miSouth (180°)9.2 mphClear
1:55 PM88.0 °F76.8 °F69 %30.09 in10.0 miSSW (200°)6.9 mphScattered Clouds
2:15 PM86.7 °F76.6 °F72 %30.08 in10.0 miSouth (190°)9.2 mphScattered Clouds
2:35 PM87.6 °F77.2 °F71 %30.08 in10.0 miSSW (210°)9.2 mphScattered Clouds
2:55 PM86.2 °F76.5 °F73 %30.07 in10.0 miSouth (190°)10.4 mph17.3 mphScattered Clouds
3:15 PM85.8 °F76.5 °F73 %30.06 in10.0 miSouth (180°)11.5 mph16.1 mphScattered Clouds
3:35 PM85.8 °F76.5 °F73 %30.04 in10.0 miSouth (170°)11.5 mph17.3 mphScattered Clouds
3:55 PM86.4 °F76.5 °F72 %30.03 in10.0 miSouth (190°)10.4 mph16.1 mphMostly Cloudy
4:15 PM86.2 °F76.1 °F72 %30.03 in10.0 miSW (220°)6.9 mphMostly Cloudy
4:35 PM85.6 °F75.6 °F72 %30.02 in10.0 miSSW (200°)10.4 mphScattered Clouds
4:55 PM85.5 °F74.8 °F70 %30.01 in10.0 miSSW (200°)8.1 mphScattered Clouds
5:15 PM85.3 °F75.0 °F71 %30.00 in10.0 miSouth (190°)9.2 mphScattered Clouds
5:35 PM84.7 °F75.2 °F73 %30.01 in10.0 miSSW (210°)5.8 mphScattered Clouds
5:55 PM84.2 °F75.0 °F74 %30.03 in10.0 miSSW (210°)9.2 mphScattered Clouds
6:15 PM83.3 °F74.3 °F74 %30.03 in10.0 miSW (220°)5.8 mphScattered Clouds
6:55 PM81.7 °F73.6 °F76 %30.02 in10.0 miSSW (210°)9.2 mphClear
7:15 PM81.5 °F74.7 °F80 %30.02 in10.0 miSW (220°)5.8 mphScattered Clouds
7:35 PM81.1 °F74.3 °F80 %30.02 in10.0 miSW (220°)5.8 mphScattered Clouds
7:55 PM81.1 °F75.0 °F82 %30.01 in10.0 miSouth (190°)6.9 mphScattered Clouds
8:15 PM81.1 °F74.3 °F80 %30.03 in10.0 miSSW (200°)5.8 mphClear
8:35 PM81.1 °F75.0 °F82 %30.03 in10.0 miSSW (200°)9.2 mphScattered Clouds
8:55 PM81.0 °F74.7 °F81 %30.03 in10.0 miSSW (210°)8.1 mphScattered Clouds
9:15 PM80.8 °F74.5 °F81 %30.03 in10.0 miSSW (200°)8.1 mphScattered Clouds
9:35 PM81.0 °F73.8 °F79 %30.02 in10.0 miSSW (200°)9.2 mphClear
9:55 PM80.8 °F74.7 °F82 %30.03 in10.0 miSSW (200°)10.4 mphClear
10:15 PM80.4 °F73.9 °F81 %30.03 in10.0 miSW (220°)9.2 mphClear
10:35 PM80.6 °F73.8 °F80 %30.03 in10.0 miSSW (210°)9.2 mph16.1 mphClear
10:55 PM80.2 °F73.9 °F81 %30.04 in10.0 miSSW (210°)8.1 mphClear
11:15 PM80.2 °F74.3 °F82 %30.05 in10.0 miSW (220°)10.4 mphScattered Clouds
11:35 PM80.2 °F73.8 °F81 %30.05 in10.0 miSW (220°)8.1 mphScattered Clouds
11:55 PM80.2 °F74.1 °F82 %30.05 in10.0 miSW (220°)6.9 mphScattered Clouds
Hourly data recorded from KSUT, located miles away from Boiling Spring Lakes, North Carolina







STORIES FROM OUR PARTNERS